Flag Weather past 2 weeks in Sandefjord, Norway

Now
46 °F

Light rain. Passing clouds.


Feels Like: 41 °F
Forecast: 33 / 38 °F
Wind: 10 mph from Southwest

Location: Torp

Current Time: Nov 24, 2014 at 8:03:22 AM

Latest Report: Nov 24, 2014 at 7:20 AM


Visibility: N/A

Pressure: 29.65 "Hg

Humidity: 93%

Dew point: 45 °F

Location of SandefjordLocation

Historic Weather in Sandefjord — Graph

°F

Sandefjord temperature yesterday

Maximum temperature yesterday: 45 °F (at 10:20 PM)
Minimum temperature yesterday: 34 °F (at 12:20 AM)
Average temperature yesterday: 40 °F

Past Weeks' High & Low Weather Summary

 TemperatureHumidityPressure
High52 °F (Nov 9, 11:20 AM)100% (Nov 9, 6:20 AM)30.48 "Hg (Nov 9, 6:20 AM)
Low28 °F (Nov 22, 6:20 AM)76% (Nov 17, 2:50 AM)29.65 "Hg (Nov 10, 3:20 PM)
Average41 °F93%30.13 "Hg
* Reported Nov 9 6:20 AM — Nov 24 6:50 AM, Sandefjord, Weather by CustomWeather, © 2014

Note: Actual official high and low records may vary slightly from our data, if they occured in-between our weather recording intervals... More about our weather records

Advertising

Sandefjord weather history for previous 24 hours

 ConditionsComfort  
Time TempWeatherWind HumidityBarometerVisibility
6:50 AM
Nov 24
46 °FLight rain. Low clouds.9 mph93%29.68 "HgN/A
6:20 AM46 °FLight rain. Mostly cloudy.12 mph93%29.68 "HgN/A
5:50 AM46 °FLight rain. Partly cloudy.14 mph100%29.68 "HgN/A
5:20 AM46 °FLight rain. Low clouds.13 mph100%29.68 "Hg3 mi
4:50 AM46 °FLight rain. Fog.14 mph100%29.68 "Hg4 mi
4:20 AM46 °FDrizzle. Fog.17 mph100%29.71 "Hg4 mi
3:50 AM46 °FRain. Mostly cloudy.18 mph100%29.71 "Hg2 mi
3:20 AM46 °FRain. Mostly cloudy.18 mph100%29.74 "Hg2 mi
2:50 AM46 °FLight rain. Low clouds.22 mph100%29.74 "Hg2 mi
2:20 AM46 °FRain. Mostly cloudy.21 mph100%29.74 "Hg2 mi
1:50 AM46 °FRain. Mostly cloudy.22 mph100%29.77 "Hg1 mi
1:20 AM46 °FRain. Low clouds.21 mph100%29.77 "Hg1 mi
12:50 AM46 °FRain. Low clouds.18 mph100%29.80 "Hg2 mi
12:20 AM46 °FLight rain. Mostly cloudy.21 mph93%29.83 "Hg2 mi
11:50 PM
Nov 23
45 °FLight rain. Low clouds.21 mph100%29.83 "Hg1 mi
11:20 PM45 °FHeavy rain. Low clouds.20 mph100%29.86 "Hg1 mi
10:50 PM45 °FHeavy rain. Low clouds.20 mph93%29.89 "Hg2 mi
10:20 PM45 °FHeavy rain. Passing clouds.16 mph93%29.89 "Hg2 mi
9:50 PM43 °FDrizzle. Fog.12 mph100%29.89 "Hg2 mi
9:20 PM43 °FDrizzle. Overcast.10 mph100%29.92 "Hg1 mi
8:50 PM43 °FDrizzle. Dense fog.9 mph100%29.95 "Hg1 mi
8:20 PM43 °FRain. Fog.9 mph93%29.95 "Hg2 mi
7:50 PM43 °FRain. Fog.9 mph93%29.98 "Hg2 mi
7:20 PM43 °FRain. Low clouds.8 mph93%29.98 "Hg2 mi
6:50 PM43 °FDrizzle. Fog.10 mph93%30.01 "Hg2 mi
6:20 PM43 °FLight rain. Fog.9 mph93%30.04 "Hg2 mi
5:50 PM41 °FDrizzle. Fog.9 mph100%30.04 "Hg2 mi
5:20 PM41 °FDrizzle. Fog.9 mph100%30.07 "Hg2 mi
4:50 PM41 °FLight rain. Fog.9 mph100%30.07 "Hg2 mi
4:20 PM41 °FLight rain. Fog.7 mph100%30.09 "Hg1 mi
3:50 PM41 °FLight rain. Fog.7 mph100%30.09 "Hg2 mi
3:20 PM41 °FLow clouds.8 mph100%30.12 "Hg4 mi
2:50 PM41 °FDrizzle. Fog.8 mph100%30.12 "Hg2 mi
2:20 PM41 °FDrizzle. Fog.9 mph100%30.12 "Hg1 mi
1:50 PM41 °FDrizzle. Fog.8 mph100%30.15 "Hg1 mi
1:20 PM41 °FFog.8 mph100%30.18 "Hg3 mi
12:50 PM41 °FFog.8 mph100%30.18 "Hg1 mi
12:20 PM41 °FDrizzle. Fog.8 mph100%30.18 "Hg1 mi
11:50 AM41 °FDrizzle. Fog.9 mph100%30.18 "Hg1 mi
11:20 AM41 °FDrizzle. Fog.6 mph100%30.21 "Hg2 mi
10:50 AM41 °FPartly sunny.7 mph100%30.21 "Hg4 mi
10:20 AM41 °FPartly sunny.7 mph100%30.21 "Hg4 mi
9:50 AM41 °FPartly sunny.5 mph100%30.21 "Hg4 mi
9:20 AM41 °FFog.5 mph93%30.21 "Hg2 mi
8:50 AM39 °FFog.6 mph100%30.21 "Hg2 mi
8:20 AM39 °FFog.6 mph100%30.21 "Hg2 mi
Weather by CustomWeather, © 2014

See weather overviewHow to use our weather pages